Location: Newark
(12.4436°N, 0.6167°W)
Time: 22:20:15
(UTC+00:00)

Altair - All Passes

Search period start: 11 December 2019 00:00
Search period end: 21 December 2019 00:00
Orbit: 1502 x 1682 km, 47.2° (Epoch: 10 December)

Date Brightness Start Highest point End Pass type
(mag) Time Alt. Az. Time Alt. Az. Time Alt. Az.
11 Dec - 03:15:22 10° NNW 03:22:31 25° NE 03:29:41 10° E visible
11 Dec - 05:18:20 10° NW 05:27:30 75° SW 05:36:56 10° SE visible
11 Dec - 07:28:28 10° WSW 07:31:55 12° SW 07:35:26 10° SSW daylight
11 Dec - 16:15:00 10° SSE 16:20:00 15° SE 16:24:55 10° E daylight
11 Dec - 18:14:32 10° SW 18:24:32 80° SE 18:34:10 10° NE visible
11 Dec - 20:22:11 10° W 20:29:42 25° NW 20:37:02 10° NNE visible
12 Dec - 02:50:31 10° N 02:57:15 22° NE 03:03:59 10° E visible
12 Dec - 04:53:10 10° NW 05:02:21 83° SW 05:11:48 10° SE visible
12 Dec - 07:02:05 10° W 07:06:44 15° SW 07:11:28 10° SSW daylight
12 Dec - 15:51:03 10° SSE 15:54:47 12° SE 15:58:28 10° ESE daylight
12 Dec - 17:49:24 10° SSW 17:59:23 72° SE 18:08:58 10° NE visible
12 Dec - 19:56:29 10° W 20:04:25 27° NW 20:12:09 10° NNE visible
13 Dec - 02:25:41 10° N 02:31:56 20° NE 02:38:13 10° E visible
13 Dec - 04:28:01 10° NW 04:37:13 88° NE 04:46:38 10° SE visible
13 Dec - 06:36:03 10° W 06:41:33 17° SW 06:47:12 10° SSW daylight
13 Dec - 15:28:12 10° SE 15:29:34 10° SE 15:30:56 10° ESE daylight
13 Dec - 17:24:17 10° SSW 17:34:12 65° SE 17:43:45 10° NE daylight
13 Dec - 19:30:49 10° W 19:39:08 31° NW 19:47:15 10° NNE visible
14 Dec - 02:00:55 10° N 02:06:38 18° NE 02:12:21 10° ENE visible
14 Dec - 04:02:54 10° NW 04:12:05 80° NE 04:21:26 10° SE visible
14 Dec - 06:10:13 10° W 06:16:24 20° SW 06:22:44 10° S daylight
14 Dec - 16:59:13 10° SSW 17:09:02 58° SE 17:18:31 10° NE daylight
14 Dec - 19:05:13 10° WSW 19:13:52 34° NW 19:22:18 10° NNE visible
15 Dec - 01:36:11 10° N 01:41:18 16° NE 01:46:25 10° ENE visible
15 Dec - 03:37:47 10° NW 03:46:56 72° NE 03:56:13 10° SE visible
15 Dec - 05:44:30 10° W 05:51:14 23° SW 05:58:09 10° S visible
15 Dec - 16:34:10 10° SSW 16:43:51 52° SE 16:53:14 10° NE daylight
15 Dec - 18:39:40 10° WSW 18:48:38 38° NW 18:57:21 10° NNE visible
16 Dec - 01:11:33 10° N 01:15:57 14° NNE 01:20:20 10° ENE visible
16 Dec - 03:12:42 10° NNW 03:21:47 65° NE 03:30:58 10° SE visible
16 Dec - 05:18:53 10° WNW 05:26:06 26° SW 05:33:28 10° S visible
16 Dec - 16:09:10 10° SSW 16:18:41 47° SE 16:27:54 10° ENE daylight
16 Dec - 18:14:09 10° WSW 18:23:23 42° NW 18:32:22 10° NNE visible
17 Dec - 00:47:04 10° N 00:50:35 12° NNE 00:54:04 10° NE night (unlit)
17 Dec - 02:47:38 10° NNW 02:56:37 58° NE 03:05:41 10° SE visible
17 Dec - 04:53:21 10° WNW 05:00:58 30° SW 05:08:44 10° S visible
17 Dec - 15:44:13 10° SSW 15:53:31 42° SE 16:02:33 10° ENE daylight
17 Dec - 17:48:41 10° WSW 17:58:09 47° NW 18:07:21 10° NNE visible
17 Dec - 20:04:00 10° NW 20:04:48 10° NNW 20:05:36 10° NNW visible
18 Dec - 00:22:55 10° NNE 00:25:11 11° NNE 00:27:26 10° NE night (unlit)
18 Dec - 02:22:36 10° NNW 02:31:27 52° NE 02:40:21 10° ESE visible
18 Dec - 04:27:54 10° WNW 04:35:49 33° SW 04:43:55 10° S visible
18 Dec - 15:19:18 10° SSW 15:28:20 37° SE 15:37:08 10° ENE daylight
18 Dec - 17:23:15 10° WSW 17:32:56 52° NW 17:42:19 10° NNE daylight
18 Dec - 19:36:23 10° NW 19:39:21 12° NNW 19:42:19 10° NNW visible
19 Dec - 01:57:34 10° NNW 02:06:16 47° NE 02:15:00 10° ESE visible
19 Dec - 04:02:28 10° WNW 04:10:42 38° SW 04:19:04 10° SSE visible
19 Dec - 14:54:26 10° S 15:03:09 33° SE 15:11:39 10° ENE daylight
19 Dec - 16:57:52 10° SW 17:07:43 58° NW 17:17:16 10° NNE daylight
19 Dec - 19:09:48 10° WNW 19:13:56 13° NNW 19:18:02 10° N visible
20 Dec - 01:32:33 10° NNW 01:41:05 42° NE 01:49:36 10° ESE visible
20 Dec - 03:37:06 10° WNW 03:45:34 43° SW 03:54:10 10° SSE visible
20 Dec - 14:29:37 10° S 14:37:59 29° SE 14:46:09 10° ENE daylight
20 Dec - 16:32:32 10° SW 16:42:30 64° NW 16:52:11 10° NNE daylight
20 Dec - 18:43:30 10° WNW 18:48:32 15° NNW 18:53:30 10° N visible
